This is the latest recevied weather packets stored in our database for station/object KF0WJA. If no packets are shown the sender has not sent any weather packets the latest 10 day(s).
| Time | Temp. | Humidity | Pressure | Rain* | Wind** | Luminosity | Snow |
|---|---|---|---|---|---|---|---|
| 1788657629 | 30.56° C | 52% | 1014.3 hPa | 0 mm | - | 0 W/m² | - |
| 1788657325 | 31.11° C | 52% | 1014.3 hPa | 0 mm | - | 0 W/m² | - |
| 1788657025 | 31.67° C | 50% | 1014.3 hPa | 0 mm | - | 0 W/m² | - |
| 1788656720 | 31.67° C | 50% | 1014.2 hPa | 0 mm | - | 0 W/m² | - |
| 1788656417 | 31.67° C | 50% | 1014.2 hPa | 0 mm | - | 0 W/m² | - |
| 1788656116 | 32.22° C | 48% | 1014.2 hPa | 0 mm | - | 0 W/m² | - |
| 1788655815 | 32.22° C | 47% | 1014.2 hPa | 0 mm | - | 0 W/m² | - |
| 1788655515 | 32.78° C | 47% | 1014.4 hPa | 0 mm | - | 2 W/m² | - |
| 1788655210 | 32.78° C | 46% | 1014.3 hPa | 0 mm | - | 3 W/m² | - |
| 1788654905 | 32.78° C | 46% | 1014.3 hPa | 0 mm | - | 6 W/m² | - |
| 1788654601 | 33.33° C | 44% | 1014.3 hPa | 0 mm | - | 10 W/m² | - |
| 1788654301 | 33.33° C | 44% | 1014.1 hPa | 0 mm | - | 13 W/m² | - |
| 1788653996 | 33.33° C | 44% | 1014.3 hPa | 0 mm | - | 16 W/m² | - |
| 1788653692 | 33.89° C | 43% | 1014.3 hPa | 0 mm | - | 18 W/m² | - |
| 1788653386 | 34.44° C | 42% | 1014.3 hPa | 0 mm | - | 21 W/m² | - |
| 1788653082 | 34.44° C | 41% | 1014.2 hPa | 0 mm | - | 27 W/m² | - |
| 1788652782 | 35° C | 41% | 1014.1 hPa | 0 mm | - | 42 W/m² | - |
| 1788652476 | 35.56° C | 40% | 1014.2 hPa | 0 mm | - | 42 W/m² | - |
| 1788652171 | 35.56° C | 39% | 1014.4 hPa | 0 mm | - | 53 W/m² | - |
| 1788651867 | 36.67° C | 38% | 1014.5 hPa | 0 mm | - | 48 W/m² | - |
| 1788651566 | 36.67° C | 37% | 1014.2 hPa | 0 mm | - | 85 W/m² | - |
| 1788651262 | 36.67° C | 37% | 1014.2 hPa | 0 mm | - | 136 W/m² | - |
| 1788650961 | 36.67° C | 37% | 1014.2 hPa | 0 mm | - | 153 W/m² | - |
| 1788650657 | 36.67° C | 37% | 1014.1 hPa | 0 mm | - | 164 W/m² | - |
| 1788650352 | 36.11° C | 38% | 1014.2 hPa | 0 mm | - | 136 W/m² | - |
* Rain latest hour (hover to see other rain measurements)
** Current wind speed in m/s (hover to see current wind gust speed)